When you browse on this site, cookies collect data to enhance your experience and personalize the content and advertising you see.
Visit our Privacy Policy to learn more. By continuing to use the site, you agree to this use of cookies and data.
  • In Portugal
  • List of Countries
  • For 7 days
  • Water Temperature
  • Satellite Maps
  • Weather Map
  • Weather Widgets
  • user-avatar
    Login

    Hourly Weather Roscino

    Today, 18 December, Tuesday

    Time Temperature Precipitation Wind Pressure Humidity
    00:00 -3°C° 0 mm 2 mps 767 mmHg 84%
    01:00 -3°C° 0 mm 2 mps 767 mmHg 82%
    02:00 -3°C° 0 mm 2 mps 767 mmHg 83%
    03:00 -3°C° 0 mm 2 mps 767 mmHg 83%
    04:00 -3°C° 0 mm 2 mps 767 mmHg 84%
    05:00 -3°C° 0 mm 2 mps 767 mmHg 85%
    06:00 -2°C° 0 mm 2 mps 767 mmHg 86%
    07:00 -2°C° 0 mm 3 mps 768 mmHg 88%
    08:00 -2°C° 0 mm 3 mps 768 mmHg 88%
    09:00 -2°C° 0 mm 3 mps 768 mmHg 88%
    10:00 -1°C° 0 mm 3 mps 768 mmHg 88%
    11:00 -1°C° 0 mm 3 mps 768 mmHg 88%
    12:00 0°C° 0 mm 3 mps 768 mmHg 88%
    13:00 0°C° 0 mm 3 mps 768 mmHg 90%
    14:00 0°C° 0 mm 3 mps 768 mmHg 92%
    15:00 0°C° 0 mm 3 mps 767 mmHg 94%
    16:00 0°C° 0 mm 3 mps 767 mmHg 96%
    17:00 0°C° 0 mm 3 mps 767 mmHg 96%
    18:00 0°C° 0 mm 3 mps 767 mmHg 96%
    19:00 0°C° 0 mm 3 mps 767 mmHg 96%
    20:00 0°C° 0 mm 3 mps 767 mmHg 96%
    21:00 0°C° 0 mm 3 mps 767 mmHg 96%
    22:00 0°C° 0 mm 3 mps 767 mmHg 96%
    23:00 0°C° 0 mm 3 mps 767 mmHg 96%

    Tomorrow, 19 December, Wednesday

    Time Temperature Precipitation Wind Pressure Humidity
    00:00 -1°C° 0 mm 4 mps 767 mmHg 96%
    01:00 -1°C° 0 mm 4 mps 767 mmHg 96%
    02:00 -1°C° 0 mm 4 mps 767 mmHg 95%
    03:00 -1°C° 0 mm 4 mps 766 mmHg 95%
    04:00 -1°C° 0 mm 5 mps 766 mmHg 95%
    05:00 -1°C° 0 mm 5 mps 766 mmHg 93%
    06:00 -1°C° 0 mm 5 mps 765 mmHg 92%
    07:00 -2°C° 0 mm 6 mps 765 mmHg 91%
    08:00 -2°C° 0 mm 6 mps 765 mmHg 86%
    09:00 -2°C° 0 mm 6 mps 764 mmHg 82%
    10:00 -2°C° 0 mm 7 mps 764 mmHg 77%
    11:00 -1°C° 0 mm 7 mps 764 mmHg 76%
    12:00 -1°C° 0 mm 7 mps 763 mmHg 75%
    13:00 -1°C° 0 mm 7 mps 763 mmHg 73%
    14:00 -1°C° 0 mm 7 mps 762 mmHg 75%
    15:00 -2°C° 0 mm 7 mps 762 mmHg 78%
    16:00 -2°C° 0 mm 6 mps 762 mmHg 80%
    17:00 -2°C° 0 mm 6 mps 762 mmHg 80%
    18:00 -2°C° 0 mm 6 mps 761 mmHg 81%
    19:00 -2°C° 0 mm 6 mps 761 mmHg 81%
    20:00 -1°C° 0.1 mm 5 mps 761 mmHg 82%
    21:00 -1°C° 0.1 mm 5 mps 761 mmHg 82%
    22:00 -1°C° 0.1 mm 5 mps 761 mmHg 83%
    23:00 -1°C° 0.2 mm 5 mps 761 mmHg 85%

    Day after tomorrow, 20 December, Thursday

    Time Temperature Precipitation Wind Pressure Humidity
    00:00 -1°C° 0.2 mm 4 mps 761 mmHg 86%
    01:00 -1°C° 0.2 mm 4 mps 761 mmHg 88%
    02:00 -1°C° 0.4 mm 4 mps 761 mmHg 89%
    03:00 -1°C° 0.4 mm 4 mps 761 mmHg 91%
    04:00 -1°C° 0.4 mm 4 mps 761 mmHg 92%
    05:00 -1°C° 0.3 mm 4 mps 761 mmHg 93%
    06:00 -1°C° 0.3 mm 4 mps 760 mmHg 93%
    07:00 -1°C° 0.3 mm 4 mps 760 mmHg 93%
    08:00 -1°C° 0.2 mm 4 mps 760 mmHg 93%
    09:00 -1°C° 0.2 mm 4 mps 760 mmHg 93%
    10:00 -1°C° 0.2 mm 4 mps 761 mmHg 93%
    11:00 0°C° 0.3 mm 3 mps 760 mmHg 93%
    12:00 0°C° 0.3 mm 3 mps 760 mmHg 93%
    13:00 0°C° 0.3 mm 3 mps 760 mmHg 93%
    14:00 0°C° 0.3 mm 3 mps 760 mmHg 94%
    15:00 0°C° 0.3 mm 3 mps 760 mmHg 95%
    16:00 0°C° 0.3 mm 3 mps 760 mmHg 95%
    17:00 0°C° 0.2 mm 3 mps 760 mmHg 95%
    18:00 0°C° 0.2 mm 3 mps 760 mmHg 96%
    19:00 0°C° 0.2 mm 3 mps 760 mmHg 96%
    20:00 +1°C° 0.2 mm 3 mps 760 mmHg 96%
    21:00 +1°C° 0.2 mm 3 mps 759 mmHg 96%
    22:00 +1°C° 0.2 mm 3 mps 759 mmHg 97%
    23:00 +1°C° 0 mm 3 mps 759 mmHg 96%

    21 December, Friday

    Time Temperature Precipitation Wind Pressure Humidity
    00:00 0°C° 0 mm 3 mps 759 mmHg 96%
    01:00 0°C° 0 mm 3 mps 759 mmHg 96%
    02:00 0°C° 0 mm 3 mps 759 mmHg 96%
    03:00 0°C° 0 mm 3 mps 758 mmHg 96%
    04:00 0°C° 0 mm 3 mps 758 mmHg 96%
    05:00 -1°C° 0 mm 4 mps 758 mmHg 96%
    06:00 -1°C° 0 mm 4 mps 758 mmHg 96%
    07:00 0°C° 0 mm 4 mps 757 mmHg 96%
    08:00 0°C° 0 mm 4 mps 757 mmHg 97%
    09:00 0°C° 0 mm 4 mps 757 mmHg 97%
    10:00 +1°C° 0 mm 4 mps 757 mmHg 97%
    11:00 +1°C° 0 mm 4 mps 756 mmHg 96%
    12:00 +1°C° 0 mm 4 mps 756 mmHg 96%
    13:00 +1°C° 0 mm 4 mps 756 mmHg 96%
    14:00 +1°C° 0 mm 4 mps 755 mmHg 96%
    15:00 +1°C° 0 mm 5 mps 754 mmHg 95%
    16:00 +1°C° 0 mm 5 mps 753 mmHg 95%
    17:00 +1°C° 0.2 mm 5 mps 752 mmHg 95%
    18:00 +1°C° 0.2 mm 6 mps 752 mmHg 94%
    19:00 +1°C° 0.2 mm 6 mps 751 mmHg 94%
    20:00 +1°C° 0.7 mm 6 mps 750 mmHg 93%
    21:00 0°C° 0.7 mm 7 mps 749 mmHg 93%
    22:00 0°C° 0.7 mm 7 mps 749 mmHg 93%
    23:00 +2°C° 0.7 mm 7 mps 748 mmHg 92%

    22 December, Saturday

    Time Temperature Precipitation Wind Pressure Humidity
    00:00 +3°C° 0.7 mm 7 mps 748 mmHg 92%
    01:00 +4°C° 0.7 mm 6 mps 748 mmHg 91%
    02:00 +4°C° 0.4 mm 7 mps 748 mmHg 90%
    03:00 +4°C° 0.4 mm 7 mps 748 mmHg 88%
    04:00 +4°C° 0.4 mm 8 mps 749 mmHg 87%
    05:00 +4°C° 0.1 mm 7 mps 749 mmHg 87%
    06:00 +4°C° 0.1 mm 7 mps 749 mmHg 87%
    07:00 +4°C° 0.1 mm 7 mps 749 mmHg 87%
    08:00 +4°C° 0.1 mm 6 mps 749 mmHg 88%
    09:00 +4°C° 0.1 mm 6 mps 749 mmHg 89%
    10:00 +4°C° 0.1 mm 6 mps 749 mmHg 90%
    11:00 +4°C° 0.8 mm 6 mps 749 mmHg 91%
    12:00 +4°C° 0.8 mm 6 mps 749 mmHg 91%
    13:00 +4°C° 0.8 mm 6 mps 748 mmHg 92%
    14:00 +5°C° 1 mm 6 mps 748 mmHg 91%
    15:00 +5°C° 1 mm 6 mps 748 mmHg 91%
    16:00 +5°C° 1 mm 6 mps 748 mmHg 91%
    17:00 +5°C° 0.2 mm 6 mps 748 mmHg 89%
    18:00 +5°C° 0.2 mm 6 mps 748 mmHg 87%
    19:00 +5°C° 0.2 mm 7 mps 748 mmHg 86%
    20:00 +4°C° 0.2 mm 7 mps 749 mmHg 85%
    21:00 +4°C° 0.2 mm 8 mps 749 mmHg 84%
    22:00 +3°C° 0.2 mm 9 mps 749 mmHg 83%
    23:00 +3°C° 0.4 mm 10 mps 750 mmHg 83%

    23 December, Sunday

    Time Temperature Precipitation Wind Pressure Humidity
    00:00 +3°C° 0.4 mm 10 mps 750 mmHg 83%
    01:00 +3°C° 0.4 mm 11 mps 751 mmHg 83%
    02:00 +3°C° 0.2 mm 10 mps 751 mmHg 83%
    03:00 +2°C° 0.2 mm 10 mps 752 mmHg 83%
    04:00 +2°C° 0.2 mm 9 mps 753 mmHg 84%
    05:00 +2°C° 0.1 mm 8 mps 753 mmHg 85%
    06:00 +3°C° 0.1 mm 7 mps 754 mmHg 87%
    07:00 +3°C° 0.1 mm 6 mps 754 mmHg 88%
    08:00 +3°C° 0.1 mm 5 mps 755 mmHg 89%
    09:00 +4°C° 0.1 mm 4 mps 755 mmHg 90%
    10:00 +4°C° 0.1 mm 3 mps 756 mmHg 91%
    11:00 +4°C° 0.4 mm 3 mps 756 mmHg 91%
    12:00 +4°C° 0.4 mm 3 mps 756 mmHg 91%
    13:00 +4°C° 0.4 mm 3 mps 756 mmHg 91%
    14:00 +4°C° 0.4 mm 3 mps 756 mmHg 91%
    15:00 +4°C° 0.4 mm 3 mps 756 mmHg 90%
    16:00 +4°C° 0.4 mm 3 mps 756 mmHg 89%
    17:00 +4°C° 0.5 mm 3 mps 757 mmHg 90%
    18:00 +4°C° 0.5 mm 4 mps 757 mmHg 91%
    19:00 +4°C° 0.5 mm 4 mps 757 mmHg 92%
    20:00 +4°C° 0.2 mm 4 mps 758 mmHg 91%
    21:00 +3°C° 0.2 mm 4 mps 759 mmHg 90%
    22:00 +3°C° 0.2 mm 4 mps 759 mmHg 89%
    23:00 +3°C° 0.1 mm 4 mps 760 mmHg 89%
    Show more